Time,TemperatureF,DewpointF,PressureIn,WindDirection,WindDirectionDegrees,WindSpeedMPH,WindSpeedGustMPH,Humidity,HourlyPrecipIn,Conditions,Clouds,dailyrainin,SoftwareType,DateUTC
2013-01-24 00:00:00,10.0,-99.9,-100.00,South,185,7.0,9.0,-999,-99.99,,,-99.99,,2013-01-24 05:00:00,
2013-01-24 00:23:00,10.0,-99.9,-100.00,South,185,7.0,9.0,-999,-99.99,,,-99.99,,2013-01-24 05:23:00,
2013-01-24 00:33:00,10.0,-99.9,-100.00,South,185,7.0,9.0,-999,-99.99,,,-99.99,,2013-01-24 05:33:00,
2013-01-24 00:43:00,10.0,-99.9,-100.00,South,185,7.0,9.0,-999,-99.99,,,-99.99,,2013-01-24 05:43:00,
2013-01-24 00:53:00,10.0,-99.9,-100.00,South,185,7.0,9.0,-999,-99.99,,,-99.99,,2013-01-24 05:53:00,
2013-01-24 01:00:00,11.0,-99.9,-100.00,SSE,164,11.0,15.0,-999,-99.99,,,-99.99,,2013-01-24 06:00:00,
2013-01-24 01:22:00,11.0,-99.9,-100.00,SSE,164,11.0,15.0,-999,-99.99,,,-99.99,,2013-01-24 06:22:00,
2013-01-24 01:33:00,11.0,-99.9,-100.00,SSE,164,11.0,15.0,-999,-99.99,,,-99.99,,2013-01-24 06:33:00,
2013-01-24 01:43:00,11.0,-99.9,-100.00,SSE,164,11.0,15.0,-999,-99.99,,,-99.99,,2013-01-24 06:43:00,
2013-01-24 01:53:00,11.0,-99.9,-100.00,SSE,164,11.0,15.0,-999,-99.99,,,-99.99,,2013-01-24 06:53:00,
2013-01-24 02:00:00,11.0,-99.9,-100.00,SSW,195,6.0,8.0,-999,-99.99,,,-99.99,,2013-01-24 07:00:00,
2013-01-24 02:23:00,11.0,-99.9,-100.00,SSW,195,6.0,8.0,-999,-99.99,,,-99.99,,2013-01-24 07:23:00,
2013-01-24 02:34:00,11.0,-99.9,-100.00,SSW,195,6.0,8.0,-999,-99.99,,,-99.99,,2013-01-24 07:34:00,
2013-01-24 02:43:00,11.0,-99.9,-100.00,SSW,195,6.0,8.0,-999,-99.99,,,-99.99,,2013-01-24 07:43:00,
2013-01-24 02:53:00,11.0,-99.9,-100.00,SSW,195,6.0,8.0,-999,-99.99,,,-99.99,,2013-01-24 07:53:00,
2013-01-24 03:00:00,11.0,-99.9,-100.00,South,191,5.0,7.0,-999,-99.99,,,-99.99,,2013-01-24 08:00:00,
2013-01-24 03:23:00,11.0,-99.9,-100.00,South,191,5.0,7.0,-999,-99.99,,,-99.99,,2013-01-24 08:23:00,
2013-01-24 03:33:00,11.0,-99.9,-100.00,South,191,5.0,7.0,-999,-99.99,,,-99.99,,2013-01-24 08:33:00,
2013-01-24 03:43:00,11.0,-99.9,-100.00,South,191,5.0,7.0,-999,-99.99,,,-99.99,,2013-01-24 08:43:00,
2013-01-24 03:53:00,11.0,-99.9,-100.00,South,191,5.0,7.0,-999,-99.99,,,-99.99,,2013-01-24 08:53:00,
2013-01-24 04:00:00,11.0,-99.9,-100.00,SSW,201,5.0,7.0,-999,-99.99,,,-99.99,,2013-01-24 09:00:00,
2013-01-24 04:23:00,11.0,-99.9,-100.00,SSW,201,5.0,7.0,-999,-99.99,,,-99.99,,2013-01-24 09:23:00,
2013-01-24 04:34:00,11.0,-99.9,-100.00,SSW,201,5.0,7.0,-999,-99.99,,,-99.99,,2013-01-24 09:34:00,
2013-01-24 04:43:00,11.0,-99.9,-100.00,SSW,201,5.0,7.0,-999,-99.99,,,-99.99,,2013-01-24 09:43:00,
2013-01-24 04:54:00,11.0,-99.9,-100.00,SSW,201,5.0,7.0,-999,-99.99,,,-99.99,,2013-01-24 09:54:00,
2013-01-24 05:00:00,9.0,-99.9,-100.00,WSW,250,4.0,6.0,-999,-99.99,,,-99.99,,2013-01-24 10:00:00,
2013-01-24 05:23:00,9.0,-99.9,-100.00,WSW,250,4.0,6.0,-999,-99.99,,,-99.99,,2013-01-24 10:23:00,
2013-01-24 05:34:00,9.0,-99.9,-100.00,WSW,250,4.0,6.0,-999,-99.99,,,-99.99,,2013-01-24 10:34:00,
2013-01-24 05:44:00,9.0,-99.9,-100.00,WSW,250,4.0,6.0,-999,-99.99,,,-99.99,,2013-01-24 10:44:00,
2013-01-24 05:53:00,9.0,-99.9,-100.00,WSW,250,4.0,6.0,-999,-99.99,,,-99.99,,2013-01-24 10:53:00,
2013-01-24 06:00:00,11.0,-99.9,-100.00,West,263,5.0,8.0,-999,-99.99,,,-99.99,,2013-01-24 11:00:00,
2013-01-24 06:23:00,11.0,-99.9,-100.00,West,263,5.0,8.0,-999,-99.99,,,-99.99,,2013-01-24 11:23:00,
2013-01-24 06:34:00,11.0,-99.9,-100.00,West,263,5.0,8.0,-999,-99.99,,,-99.99,,2013-01-24 11:34:00,
2013-01-24 06:43:00,11.0,-99.9,-100.00,West,263,5.0,8.0,-999,-99.99,,,-99.99,,2013-01-24 11:43:00,
2013-01-24 06:53:00,11.0,-99.9,-100.00,West,263,5.0,8.0,-999,-99.99,,,-99.99,,2013-01-24 11:53:00,
2013-01-24 07:00:00,12.0,-99.9,-100.00,West,265,7.0,8.0,-999,-99.99,,,-99.99,,2013-01-24 12:00:00,
2013-01-24 07:23:00,12.0,-99.9,-100.00,West,265,7.0,8.0,-999,-99.99,,,-99.99,,2013-01-24 12:23:00,
2013-01-24 07:33:00,12.0,-99.9,-100.00,West,265,7.0,8.0,-999,-99.99,,,-99.99,,2013-01-24 12:33:00,
2013-01-24 07:43:00,12.0,-99.9,-100.00,West,265,7.0,8.0,-999,-99.99,,,-99.99,,2013-01-24 12:43:00,
2013-01-24 07:53:00,12.0,-99.9,-100.00,West,265,7.0,8.0,-999,-99.99,,,-99.99,,2013-01-24 12:53:00,
2013-01-24 08:00:00,13.0,-99.9,-100.00,South,190,19.0,79.0,-999,-99.99,,,-99.99,,2013-01-24 13:00:00,
2013-01-24 08:23:00,13.0,-99.9,-100.00,South,190,19.0,79.0,-999,-99.99,,,-99.99,,2013-01-24 13:23:00,
2013-01-24 08:33:00,13.0,-99.9,-100.00,South,190,19.0,79.0,-999,-99.99,,,-99.99,,2013-01-24 13:33:00,
2013-01-24 08:43:00,13.0,-99.9,-100.00,South,190,19.0,79.0,-999,-99.99,,,-99.99,,2013-01-24 13:43:00,
2013-01-24 08:53:00,13.0,-99.9,-100.00,South,190,19.0,79.0,-999,-99.99,,,-99.99,,2013-01-24 13:53:00,
2013-01-24 09:00:00,13.0,-99.9,-100.00,South,173,14.0,31.0,-999,-99.99,,,-99.99,,2013-01-24 14:00:00,
2013-01-24 09:23:00,13.0,-99.9,-100.00,South,173,14.0,31.0,-999,-99.99,,,-99.99,,2013-01-24 14:23:00,
2013-01-24 09:33:00,13.0,-99.9,-100.00,South,173,14.0,31.0,-999,-99.99,,,-99.99,,2013-01-24 14:33:00,
2013-01-24 09:44:00,13.0,-99.9,-100.00,South,173,14.0,31.0,-999,-99.99,,,-99.99,,2013-01-24 14:44:00,
2013-01-24 09:54:00,13.0,-99.9,-100.00,South,173,14.0,31.0,-999,-99.99,,,-99.99,,2013-01-24 14:54:00,
2013-01-24 10:00:00,13.0,-99.9,-100.00,NE,39,16.0,21.0,-999,-99.99,,,-99.99,,2013-01-24 15:00:00,
2013-01-24 10:24:00,13.0,-99.9,-100.00,NE,39,16.0,21.0,-999,-99.99,,,-99.99,,2013-01-24 15:24:00,
2013-01-24 10:33:00,13.0,-99.9,-100.00,NE,39,16.0,21.0,-999,-99.99,,,-99.99,,2013-01-24 15:33:00,
2013-01-24 10:43:00,13.0,-99.9,-100.00,NE,39,16.0,21.0,-999,-99.99,,,-99.99,,2013-01-24 15:43:00,
2013-01-24 10:53:00,13.0,-99.9,-100.00,NE,39,16.0,21.0,-999,-99.99,,,-99.99,,2013-01-24 15:53:00,
2013-01-24 11:00:00,12.0,-99.9,-100.00,NNE,27,14.0,18.0,-999,-99.99,,,-99.99,,2013-01-24 16:00:00,
2013-01-24 11:23:00,12.0,-99.9,-100.00,NNE,27,14.0,18.0,-999,-99.99,,,-99.99,,2013-01-24 16:23:00,
2013-01-24 11:34:00,12.0,-99.9,-100.00,NNE,27,14.0,18.0,-999,-99.99,,,-99.99,,2013-01-24 16:34:00,
2013-01-24 11:43:00,12.0,-99.9,-100.00,NNE,27,14.0,18.0,-999,-99.99,,,-99.99,,2013-01-24 16:43:00,
2013-01-24 12:00:00,14.0,-99.9,-100.00,North,1,20.0,25.0,-999,-99.99,,,-99.99,,2013-01-24 17:00:00,
2013-01-24 12:33:00,14.0,-99.9,-100.00,North,1,20.0,25.0,-999,-99.99,,,-99.99,,2013-01-24 17:33:00,
2013-01-24 12:43:00,14.0,-99.9,-100.00,North,1,20.0,25.0,-999,-99.99,,,-99.99,,2013-01-24 17:43:00,
2013-01-24 12:53:00,14.0,-99.9,-100.00,North,1,20.0,25.0,-999,-99.99,,,-99.99,,2013-01-24 17:53:00,
2013-01-24 13:00:00,14.0,-99.9,-100.00,NNW,348,24.0,34.0,-999,-99.99,,,-99.99,,2013-01-24 18:00:00,
2013-01-24 13:23:00,14.0,-99.9,-100.00,NNW,348,24.0,34.0,-999,-99.99,,,-99.99,,2013-01-24 18:23:00,
2013-01-24 13:33:00,14.0,-99.9,-100.00,NNW,348,24.0,34.0,-999,-99.99,,,-99.99,,2013-01-24 18:33:00,
2013-01-24 13:43:00,14.0,-99.9,-100.00,NNW,348,24.0,34.0,-999,-99.99,,,-99.99,,2013-01-24 18:43:00,
2013-01-24 13:54:00,14.0,-99.9,-100.00,NNW,348,24.0,34.0,-999,-99.99,,,-99.99,,2013-01-24 18:54:00,
2013-01-24 14:00:00,14.0,-99.9,-100.00,NW,325,19.0,26.0,-999,-99.99,,,-99.99,,2013-01-24 19:00:00,
2013-01-24 14:22:00,14.0,-99.9,-100.00,NW,325,19.0,26.0,-999,-99.99,,,-99.99,,2013-01-24 19:22:00,
2013-01-24 14:33:00,14.0,-99.9,-100.00,NW,325,19.0,26.0,-999,-99.99,,,-99.99,,2013-01-24 19:33:00,
2013-01-24 14:42:00,14.0,-99.9,-100.00,NW,325,19.0,26.0,-999,-99.99,,,-99.99,,2013-01-24 19:42:00,
2013-01-24 14:53:00,14.0,-99.9,-100.00,NW,325,19.0,26.0,-999,-99.99,,,-99.99,,2013-01-24 19:53:00,
2013-01-24 15:00:00,13.0,-99.9,-100.00,NNW,330,18.0,26.0,-999,-99.99,,,-99.99,,2013-01-24 20:00:00,
2013-01-24 15:23:00,13.0,-99.9,-100.00,NNW,330,18.0,26.0,-999,-99.99,,,-99.99,,2013-01-24 20:23:00,
2013-01-24 15:33:00,13.0,-99.9,-100.00,NNW,330,18.0,26.0,-999,-99.99,,,-99.99,,2013-01-24 20:33:00,
2013-01-24 15:43:00,13.0,-99.9,-100.00,NNW,330,18.0,26.0,-999,-99.99,,,-99.99,,2013-01-24 20:43:00,
2013-01-24 15:53:00,13.0,-99.9,-100.00,NNW,330,18.0,26.0,-999,-99.99,,,-99.99,,2013-01-24 20:53:00,
2013-01-24 16:00:00,14.0,-99.9,-100.00,NW,320,18.0,26.0,-999,-99.99,,,-99.99,,2013-01-24 21:00:00,
2013-01-24 16:23:00,14.0,-99.9,-100.00,NW,320,18.0,26.0,-999,-99.99,,,-99.99,,2013-01-24 21:23:00,
2013-01-24 16:33:00,14.0,-99.9,-100.00,NW,320,18.0,26.0,-999,-99.99,,,-99.99,,2013-01-24 21:33:00,
2013-01-24 16:44:00,14.0,-99.9,-100.00,NW,320,18.0,26.0,-999,-99.99,,,-99.99,,2013-01-24 21:44:00,
2013-01-24 16:53:00,14.0,-99.9,-100.00,NW,320,18.0,26.0,-999,-99.99,,,-99.99,,2013-01-24 21:53:00,
2013-01-24 17:00:00,13.0,-99.9,-100.00,NW,307,15.0,18.0,-999,-99.99,,,-99.99,,2013-01-24 22:00:00,
2013-01-24 17:23:00,13.0,-99.9,-100.00,NW,307,15.0,18.0,-999,-99.99,,,-99.99,,2013-01-24 22:23:00,
2013-01-24 17:33:00,13.0,-99.9,-100.00,NW,307,15.0,18.0,-999,-99.99,,,-99.99,,2013-01-24 22:33:00,
2013-01-24 17:43:00,13.0,-99.9,-100.00,NW,307,15.0,18.0,-999,-99.99,,,-99.99,,2013-01-24 22:43:00,
2013-01-24 17:53:00,13.0,-99.9,-100.00,NW,307,15.0,18.0,-999,-99.99,,,-99.99,,2013-01-24 22:53:00,
2013-01-24 18:00:00,12.0,-99.9,-100.00,NW,304,14.0,17.0,-999,-99.99,,,-99.99,,2013-01-24 23:00:00,
2013-01-24 18:22:00,12.0,-99.9,-100.00,NW,304,14.0,17.0,-999,-99.99,,,-99.99,,2013-01-24 23:22:00,
2013-01-24 18:33:00,12.0,-99.9,-100.00,NW,304,14.0,17.0,-999,-99.99,,,-99.99,,2013-01-24 23:33:00,
2013-01-24 18:43:00,12.0,-99.9,-100.00,NW,304,14.0,17.0,-999,-99.99,,,-99.99,,2013-01-24 23:43:00,
2013-01-24 18:53:00,12.0,-99.9,-100.00,NW,304,14.0,17.0,-999,-99.99,,,-99.99,,2013-01-24 23:53:00,
2013-01-24 19:00:00,11.0,-99.9,-100.00,WNW,295,11.0,13.0,-999,-99.99,,,-99.99,,2013-01-25 00:00:00,
2013-01-24 19:22:00,11.0,-99.9,-100.00,WNW,295,11.0,13.0,-999,-99.99,,,-99.99,,2013-01-25 00:22:00,
2013-01-24 19:32:00,11.0,-99.9,-100.00,WNW,295,11.0,13.0,-999,-99.99,,,-99.99,,2013-01-25 00:32:00,
2013-01-24 19:42:00,11.0,-99.9,-100.00,WNW,295,11.0,13.0,-999,-99.99,,,-99.99,,2013-01-25 00:42:00,
2013-01-24 19:53:00,11.0,-99.9,-100.00,WNW,295,11.0,13.0,-999,-99.99,,,-99.99,,2013-01-25 00:53:00,
2013-01-24 20:00:00,11.0,-99.9,-100.00,WNW,288,10.0,13.0,-999,-99.99,,,-99.99,,2013-01-25 01:00:00,
2013-01-24 20:22:00,11.0,-99.9,-100.00,WNW,288,10.0,13.0,-999,-99.99,,,-99.99,,2013-01-25 01:22:00,
2013-01-24 20:33:00,11.0,-99.9,-100.00,WNW,288,10.0,13.0,-999,-99.99,,,-99.99,,2013-01-25 01:33:00,
2013-01-24 20:43:00,11.0,-99.9,-100.00,WNW,288,10.0,13.0,-999,-99.99,,,-99.99,,2013-01-25 01:43:00,
2013-01-24 20:52:00,11.0,-99.9,-100.00,WNW,288,10.0,13.0,-999,-99.99,,,-99.99,,2013-01-25 01:52:00,
2013-01-24 21:00:00,12.0,-99.9,-100.00,West,281,11.0,14.0,-999,-99.99,,,-99.99,,2013-01-25 02:00:00,
2013-01-24 21:22:00,12.0,-99.9,-100.00,West,281,11.0,14.0,-999,-99.99,,,-99.99,,2013-01-25 02:22:00,
2013-01-24 21:33:00,12.0,-99.9,-100.00,West,281,11.0,14.0,-999,-99.99,,,-99.99,,2013-01-25 02:33:00,
2013-01-24 21:43:00,12.0,-99.9,-100.00,West,281,11.0,14.0,-999,-99.99,,,-99.99,,2013-01-25 02:43:00,
2013-01-24 21:53:00,12.0,-99.9,-100.00,West,281,11.0,14.0,-999,-99.99,,,-99.99,,2013-01-25 02:53:00,
2013-01-24 22:00:00,13.0,-99.9,-100.00,West,279,11.0,14.0,-999,-99.99,,,-99.99,,2013-01-25 03:00:00,
2013-01-24 22:22:00,13.0,-99.9,-100.00,West,279,11.0,14.0,-999,-99.99,,,-99.99,,2013-01-25 03:22:00,
2013-01-24 22:33:00,13.0,-99.9,-100.00,West,279,11.0,14.0,-999,-99.99,,,-99.99,,2013-01-25 03:33:00,
2013-01-24 22:42:00,13.0,-99.9,-100.00,West,279,11.0,14.0,-999,-99.99,,,-99.99,,2013-01-25 03:42:00,
2013-01-24 22:53:00,13.0,-99.9,-100.00,West,279,11.0,14.0,-999,-99.99,,,-99.99,,2013-01-25 03:53:00,
2013-01-24 23:00:00,13.0,-99.9,-100.00,WNW,289,12.0,16.0,-999,-99.99,,,-99.99,,2013-01-25 04:00:00,
2013-01-24 23:23:00,13.0,-99.9,-100.00,WNW,289,12.0,16.0,-999,-99.99,,,-99.99,,2013-01-25 04:23:00,
2013-01-24 23:32:00,13.0,-99.9,-100.00,WNW,289,12.0,16.0,-999,-99.99,,,-99.99,,2013-01-25 04:32:00,
2013-01-24 23:42:00,13.0,-99.9,-100.00,WNW,289,12.0,16.0,-999,-99.99,,,-99.99,,2013-01-25 04:42:00,
2013-01-24 23:52:00,13.0,-99.9,-100.00,WNW,289,12.0,16.0,-999,-99.99,,,-99.99,,2013-01-25 04:52:00,